Location: Sevilla
(37.3933°N, 5.9839°W)
Time: 02:05:25
(UTC+02:00)

Vanguard 1 - Visible Passes

Search period start: 13 June 2024 00:00
Search period end: 23 June 2024 00:00
Orbit: 652 x 3825 km, 34.2° (Epoch: 12 June)

Date Brightness Start Highest point End Pass type
(mag) Time Alt. Az. Time Alt. Az. Time Alt. Az.
13 Jun 12.4 23:29:44 10° WSW 23:34:59 19° SSW 23:39:59 14° S visible
14 Jun 12.7 23:51:46 10° SW 23:55:20 13° SSW 23:58:44 11° S visible
16 Jun 12.0 22:10:06 10° WSW 22:14:18 18° SSW 22:19:58 10° SSE visible
17 Jun 12.4 22:31:46 10° SW 22:34:31 12° SSW 22:37:48 10° S visible
